Weather History for Jefferson, NC

Change the Weather History Date:

Sunday, February 12, 2012

  Actual Average Record
Temperature  
Mean Temperature 19 °F -  
Max Temperature 28 °F 44 °F 58 °F (1974)
Min Temperature 10 °F 22 °F 0 °F (1981)
Degree Days  
Heating Degree Days 46    
Moisture  
Dew Point 5 °F    
Average Humidity 56    
Maximum Humidity 73    
Minimum Humidity 43    
Precipitation  
Precipitation 0.00 in - - ()
Sea Level Pressure  
Sea Level Pressure 30.04 in    
Wind  
Wind Speed 19 mph (NW)    
Max Wind Speed 30 mph    
Max Gust Speed 50 mph    
Visibility 8 miles    
Events Snow    
Averages and records for this station are not official NWS values.
T = Trace of Precipitation, MM = Missing Value Source: NWS Daily Summary

Daily Weather History Graph

Daily Weather History Graph

Search for Another Location

Airport:

Trip Planner

Search our weather history database for the weather conditions in past years. The results will help you decide how hot, cold, wet, or windy it might be!

Date:

Astronomy

Feb. 12, 2012 Rise Set
Actual Time 7:17 AM EST 6:02 PM EST
Civil Twilight 6:50 AM EST 6:29 PM EST
Nautical Twilight 6:20 AM EST 6:59 PM EST
Astronomical Twilight 5:50 AM EST 7:29 PM EST
Moon 11:46 PM EST (2/12) 9:46 AM EST (2/12)
Length of Visible Light 11h 38m
Length of Day
10h 45m
Waning Gibbous, 72% of the Moon is Illuminated
Feb 12
Waning Gibbous
Feb 14
Last Quarter
Feb 21
New
Feb 29
First Quarter
Mar 8
Full

Hourly Weather History & Observations

Time (EST) Temp. Windchill Dew Point Humidity Pressure Visibility Wind Dir Wind Speed Gust Speed Precip Events Conditions
12:15 AM 10.4 °F -9.9 °F 1.4 °F 67% 29.96 in 3.0 mi NW 24.2 mph 49.5 mph N/A   Haze
12:35 AM 10.4 °F -9.9 °F -0.4 °F 62% 29.96 in 7.0 mi NW 24.2 mph 41.4 mph N/A   Overcast
1:15 AM 10.4 °F -10.3 °F -0.4 °F 62% 29.97 in 7.0 mi NW 25.3 mph 38.0 mph N/A   Overcast
1:35 AM 10.4 °F -11.0 °F 1.4 °F 67% 29.97 in 4.0 mi NNW 27.6 mph 41.4 mph N/A   Haze
1:55 AM 10.4 °F -10.7 °F 1.4 °F 67% 29.97 in 5.0 mi NW 26.5 mph 41.4 mph N/A Snow Light Snow
2:15 AM 10.4 °F -10.3 °F 1.4 °F 67% 29.97 in 5.0 mi NNW 25.3 mph 33.4 mph N/A Snow Light Snow
2:35 AM 10.4 °F -6.6 °F 1.4 °F 67% 29.99 in 5.0 mi NW 16.1 mph 36.8 mph N/A Snow Light Snow
2:55 AM 10.4 °F -6.6 °F 1.4 °F 67% 29.99 in 3.0 mi NW 16.1 mph 26.5 mph N/A Snow Light Snow
3:15 AM 10.4 °F -11.4 °F -0.4 °F 62% 29.99 in 3.0 mi NW 28.8 mph 38.0 mph N/A Snow Light Snow
3:35 AM 10.4 °F -9.9 °F -0.4 °F 62% 30.00 in 7.0 mi NNW 24.2 mph 34.5 mph N/A   Overcast
3:55 AM 10.4 °F -8.6 °F -0.4 °F 62% 30.00 in 7.0 mi NNW 20.7 mph 43.7 mph N/A   Overcast
4:15 AM 10.4 °F -7.2 °F 1.4 °F 67% 30.00 in 3.0 mi NNW 17.3 mph 36.8 mph N/A Snow Light Snow
4:35 AM 10.4 °F -10.3 °F 3.2 °F 73% 29.99 in 2.5 mi NNW 25.3 mph 34.5 mph N/A Snow Light Snow
4:55 AM 10.4 °F -8.6 °F 3.2 °F 73% 29.99 in 2.5 mi NNW 20.7 mph 34.5 mph N/A Snow Light Snow
5:15 AM 10.4 °F -8.2 °F 1.4 °F 67% 29.99 in 3.0 mi NNW 19.6 mph 34.5 mph N/A Snow Light Snow
5:35 AM 10.4 °F -9.1 °F 3.2 °F 73% 30.00 in 3.0 mi NNW 21.9 mph 38.0 mph N/A Snow Light Snow
5:55 AM 10.4 °F -9.9 °F 3.2 °F 73% 29.99 in 2.0 mi NNW 24.2 mph 35.7 mph N/A Snow Light Snow
6:15 AM 10.4 °F -10.3 °F 3.2 °F 73% 29.98 in 2.0 mi NNW 25.3 mph 41.4 mph N/A Snow Light Snow
6:35 AM 10.4 °F -11.7 °F 3.2 °F 73% 29.98 in 1.8 mi NNW 29.9 mph 40.3 mph N/A Snow Light Snow
6:55 AM 10.4 °F -10.3 °F 3.2 °F 73% 29.99 in 1.8 mi NNW 25.3 mph 41.4 mph N/A Snow Light Snow
7:15 AM 10.4 °F -9.1 °F 3.2 °F 73% 30.00 in 2.5 mi NNW 21.9 mph 34.5 mph N/A Snow Light Snow
7:35 AM 10.4 °F -7.2 °F 3.2 °F 73% 30.00 in 2.0 mi NNW 17.3 mph 34.5 mph N/A Snow Light Snow
7:55 AM 10.4 °F -7.7 °F 3.2 °F 73% 30.00 in 4.0 mi NW 18.4 mph 29.9 mph N/A   Haze
8:15 AM 10.4 °F -6.6 °F 1.4 °F 67% 30.01 in 10.0 mi NNW 16.1 mph 34.5 mph N/A   Scattered Clouds
8:35 AM 12.2 °F -7.9 °F 1.4 °F 62% 30.02 in 10.0 mi NW 25.3 mph 32.2 mph N/A   Clear
8:55 AM 12.2 °F -4.3 °F 1.4 °F 62% 30.04 in 7.0 mi NW 16.1 mph 36.8 mph N/A   Clear
9:15 AM 14.0 °F -3.9 °F 1.4 °F 57% 30.04 in 10.0 mi NW 20.7 mph 33.4 mph N/A   Clear
9:35 AM 14.0 °F -3.0 °F -0.4 °F 53% 30.04 in 10.0 mi NW 18.4 mph 27.6 mph N/A   Clear
9:55 AM 15.8 °F -0.6 °F -0.4 °F 49% 30.05 in 10.0 mi NNW 18.4 mph 33.4 mph N/A   Clear
10:15 AM 17.6 °F 3.2 °F 1.4 °F 49% 30.07 in 10.0 mi NW 15.0 mph 29.9 mph N/A   Clear
10:35 AM 17.6 °F 3.2 °F 1.4 °F 49% 30.08 in 10.0 mi NW 15.0 mph 31.1 mph N/A   Clear
10:55 AM 17.6 °F 3.2 °F 1.4 °F 49% 30.08 in 10.0 mi NNW 15.0 mph 32.2 mph N/A   Clear
11:35 AM 19.4 °F 7.2 °F 3.2 °F 49% 30.09 in 10.0 mi NNW 11.5 mph 23.0 mph N/A   Clear
11:55 AM 21.2 °F 9.5 °F 3.2 °F 46% 30.09 in 10.0 mi NW 11.5 mph 23.0 mph N/A   Clear
12:15 PM 21.2 °F 10.1 °F 5.0 °F 50% 30.08 in 10.0 mi WNW 10.4 mph 27.6 mph N/A   Clear
12:35 PM 23.0 °F 14.7 °F 5.0 °F 46% 30.08 in 10.0 mi NNW 6.9 mph - N/A   Clear
12:55 PM 23.0 °F 18.4 °F 6.8 °F 50% 30.07 in 10.0 mi WNW 3.5 mph - N/A   Clear
1:15 PM 24.8 °F 16.1 °F 6.8 °F 46% 30.07 in 10.0 mi WNW 8.1 mph 23.0 mph N/A   Clear
1:35 PM 26.6 °F 18.2 °F 6.8 °F 43% 30.06 in 10.0 mi NNW 8.1 mph - N/A   Clear
1:55 PM 26.6 °F 19.1 °F 6.8 °F 43% 30.06 in 10.0 mi NNW 6.9 mph - N/A   Clear
2:15 PM 26.6 °F 15.2 °F 8.6 °F 47% 30.06 in 10.0 mi NW 13.8 mph 26.5 mph N/A   Clear
2:35 PM 26.6 °F 17.5 °F 6.8 °F 43% 30.06 in 10.0 mi WNW 9.2 mph 19.6 mph N/A   Clear
2:55 PM 28.4 °F 16.6 °F 8.6 °F 43% 30.06 in 10.0 mi NW 16.1 mph 20.7 mph N/A   Clear
3:15 PM 28.4 °F 18.0 °F 8.6 °F 43% 30.07 in 10.0 mi NW 12.7 mph 25.3 mph N/A   Clear
3:35 PM 28.4 °F 19.1 °F 8.6 °F 43% 30.06 in 10.0 mi NNW 10.4 mph 23.0 mph N/A   Clear
3:55 PM 28.4 °F 18.5 °F 8.6 °F 43% 30.07 in 10.0 mi NW 11.5 mph 27.6 mph N/A   Clear
4:15 PM 28.4 °F 18.5 °F 8.6 °F 43% 30.07 in 10.0 mi NW 11.5 mph 18.4 mph N/A   Clear
4:35 PM 28.4 °F 19.7 °F 8.6 °F 43% 30.07 in 10.0 mi NNW 9.2 mph 19.6 mph N/A   Clear
4:55 PM 28.4 °F 21.2 °F 8.6 °F 43% 30.08 in 10.0 mi WNW 6.9 mph - N/A   Clear
5:15 PM 28.4 °F 20.4 °F 8.6 °F 43% 30.08 in 10.0 mi WNW 8.1 mph - N/A   Clear
5:35 PM 26.6 °F 15.7 °F 8.6 °F 47% 30.08 in 10.0 mi NW 12.7 mph 23.0 mph N/A   Clear
5:55 PM 26.6 °F 16.8 °F 8.6 °F 47% 30.08 in 10.0 mi NNW 10.4 mph 20.7 mph N/A   Clear
6:15 PM 26.6 °F 15.2 °F 8.6 °F 47% 30.08 in 10.0 mi NW 13.8 mph 23.0 mph N/A   Clear
6:35 PM 26.6 °F 14.7 °F 8.6 °F 47% 30.09 in 10.0 mi NW 15.0 mph 25.3 mph N/A   Clear
6:55 PM 26.6 °F 13.8 °F 8.6 °F 47% 30.09 in 10.0 mi WNW 17.3 mph 23.0 mph N/A   Clear
7:15 PM 26.6 °F 13.1 °F 10.4 °F 51% 30.09 in 10.0 mi WNW 19.6 mph 26.5 mph N/A   Clear
7:35 PM 26.6 °F 12.7 °F 10.4 °F 51% 30.09 in 10.0 mi NW 20.7 mph 32.2 mph N/A   Clear
7:55 PM 26.6 °F 14.3 °F 8.6 °F 47% 30.09 in 10.0 mi WNW 16.1 mph 28.8 mph N/A   Clear
8:15 PM 24.8 °F 13.4 °F 8.6 °F 50% 30.10 in 10.0 mi WNW 12.7 mph 26.5 mph N/A   Clear
8:35 PM 24.8 °F 13.4 °F 8.6 °F 50% 30.09 in 10.0 mi NW 12.7 mph 25.3 mph N/A   Clear
8:55 PM 24.8 °F 16.1 °F 8.6 °F 50% 30.10 in 10.0 mi NNW 8.1 mph 29.9 mph N/A   Clear
9:15 PM 24.8 °F 16.1 °F 8.6 °F 50% 30.10 in 10.0 mi NW 8.1 mph 16.1 mph N/A   Clear
9:35 PM 24.8 °F 19.1 °F 8.6 °F 50% 30.10 in 10.0 mi NNW 4.6 mph 20.7 mph N/A   Clear
9:55 PM 24.8 °F - 8.6 °F 50% 30.10 in 10.0 mi Calm Calm - N/A   Clear
10:15 PM 24.8 °F 14.6 °F 10.4 °F 54% 30.11 in 10.0 mi WNW 10.4 mph 20.7 mph N/A   Clear
10:35 PM 24.8 °F 16.1 °F 8.6 °F 50% 30.11 in 10.0 mi West 8.1 mph - N/A   Clear
10:55 PM 23.0 °F 11.1 °F 8.6 °F 54% 30.11 in 10.0 mi West 12.7 mph 25.3 mph N/A   Clear
11:15 PM 23.0 °F 13.9 °F 8.6 °F 54% 30.11 in 10.0 mi NW 8.1 mph 20.7 mph N/A   Clear
11:35 PM 23.0 °F 10.6 °F 8.6 °F 54% 30.12 in 10.0 mi WNW 13.8 mph 19.6 mph N/A   Clear
11:55 PM 23.0 °F 13.1 °F 10.4 °F 59% 30.13 in 10.0 mi West 9.2 mph 18.4 mph N/A   Clear